"indice_tiempo","argentina","resto_del_mundo"
"1997-01-01","408533","3272438"
"1997-02-01","425096","2717684"
"1997-03-01","495140","3328936"
"1997-04-01","481021","4143136"
"1997-05-01","572606","4082286"
"1997-06-01","593520","4248081"
"1997-07-01","585530","4649693"
"1997-08-01","624137","4447583"
"1997-09-01","672935","3911693"
"1997-10-01","710367","4075518"
"1997-11-01","611720","3361144"
"1997-12-01","584745","3943954"
"1998-01-01","463425","3444349"
"1998-02-01","506227","3205878"
"1998-03-01","594955","3675780"
"1998-04-01","591914","3981824"
"1998-05-01","622117","3986182"
"1998-06-01","632805","4248328"
"1998-07-01","669509","4297392"
"1998-08-01","543478","3435229"
"1998-09-01","635015","3892617"
"1998-10-01","543426","3467100"
"1998-11-01","513135","3185090"
"1998-12-01","427428","3513399"
"1999-01-01","353858","2593836"
"1999-02-01","366721","2897302"
"1999-03-01","461705","3364228"
"1999-04-01","385675","3316161"
"1999-05-01","460285","3922060"
"1999-06-01","439206","3864869"
"1999-07-01","435713","3676716"
"1999-08-01","478343","3788508"
"1999-09-01","456262","3722218"
"1999-10-01","476163","3822523"
"1999-11-01","501747","3494700"
"1999-12-01","543718","4123393"
"2000-01-01","385851","3060917"
"2000-02-01","457826","3662968"
"2000-03-01","487804","3979644"
"2000-04-01","478730","3691491"
"2000-05-01","546391","4513998"
"2000-06-01","539611","4310492"
"2000-07-01","554475","4445833"
"2000-08-01","587323","4929085"
"2000-09-01","542744","4169884"
"2000-10-01","552199","4082715"
"2000-11-01","537142","3849434"
"2000-12-01","559447","4092343"
"2001-01-01","397936","4135383"
"2001-02-01","433201","3647370"
"2001-03-01","529713","4633214"
"2001-04-01","507104","4212653"
"2001-05-01","536933","4826530"
"2001-06-01","463105","4574133"
"2001-07-01","467310","4494782"
"2001-08-01","409028","5314147"
"2001-09-01","328665","4420318"
"2001-10-01","351755","4609881"
"2001-11-01","314509","4180539"
"2001-12-01","253794","4086219"
"2002-01-01","139166","3828257"
"2002-02-01","130615","3524879"
"2002-03-01","150894","4107343"
"2002-04-01","177609","4454665"
"2002-05-01","200645","4237338"
"2002-06-01","166056","3908290"
"2002-07-01","227002","5990906"
"2002-08-01","228100","5520158"
"2002-09-01","214805","6274486"
"2002-10-01","231698","6237283"
"2002-11-01","233609","4874602"
"2002-12-01","237129","4994957"
"2003-01-01","227785","4574767"
"2003-02-01","260693","4737370"
"2003-03-01","295953","4935557"
"2003-04-01","322600","5383551"
"2003-05-01","363380","6006347"
"2003-06-01","372832","5497563"
"2003-07-01","386382","5710817"
"2003-08-01","397782","6001650"
"2003-09-01","478584","6797605"
"2003-10-01","510030","7049479"
"2003-11-01","465934","5454602"
"2003-12-01","478017","6265749"
"2004-01-01","443046","5343858"
"2004-02-01","450789","5264792"
"2004-03-01","604718","7302413"
"2004-04-01","509962","6071460"
"2004-05-01","615484","7315460"
"2004-06-01","655328","8651313"
"2004-07-01","723285","8239616"
"2004-08-01","686679","8364803"
"2004-09-01","663081","8249049"
"2004-10-01","669802","8166076"
"2004-11-01","655188","7496150"
"2004-12-01","693854","8495977"
"2005-01-01","579405","6906225"
"2005-02-01","649480","7135423"
"2005-03-01","811678","8482495"
"2005-04-01","765879","8485863"
"2005-05-01","890958","8961813"
"2005-06-01","864850","9360215"
"2005-07-01","850358","10237098"
"2005-08-01","942705","10403842"
"2005-09-01","889958","9772801"
"2005-10-01","881633","9051723"
"2005-11-01","939050","9910968"
"2005-12-01","901938","10016500"
"2006-01-01","719022","8564552"
"2006-02-01","797727","7965735"
"2006-03-01","965362","10428313"
"2006-04-01","891332","8935583"
"2006-05-01","982216","9313119"
"2006-06-01","959565","10492864"
"2006-07-01","1132222","12513129"
"2006-08-01","1132361","12519413"
"2006-09-01","1056337","11508138"
"2006-10-01","1055168","11626447"
"2006-11-01","1075661","10815290"
"2006-12-01","966188","11292353"
"2007-01-01","823723","10153291"
"2007-02-01","888427","9238191"
"2007-03-01","1156983","11725238"
"2007-04-01","1070674","11370651"
"2007-05-01","1197359","12441885"
"2007-06-01","1171088","11941615"
"2007-07-01","1313017","12798125"
"2007-08-01","1408397","13685928"
"2007-09-01","1312960","12841552"
"2007-10-01","1472253","14280179"
"2007-11-01","1344040","12666900"
"2007-12-01","1250144","12969261"
"2008-01-01","1301846","11965158"
"2008-02-01","1317997","11474865"
"2008-03-01","1345600","11260063"
"2008-04-01","1369565","12677214"
"2008-05-01","1640183","17651112"
"2008-06-01","1610026","16971608"
"2008-07-01","1761808","18673982"
"2008-08-01","1699304","18037310"
"2008-09-01","1731637","18269269"
"2008-10-01","1641069","16838858"
"2008-11-01","1239737","13497459"
"2008-12-01","939884","12863304"
"2009-01-01","642952","9129224"
"2009-02-01","693506","8884129"
"2009-03-01","898378","10903925"
"2009-04-01","823825","11492451"
"2009-05-01","836836","11140659"
"2009-06-01","1044236","13416527"
"2009-07-01","1054940","13082459"
"2009-08-01","1122576","12713567"
"2009-09-01","1160676","12694929"
"2009-10-01","1311413","12763870"
"2009-11-01","1205451","11437543"
"2009-12-01","1986312","12470197"
"2010-01-01","976665","10321643"
"2010-02-01","1158389","11033613"
"2010-03-01","1413300","14309038"
"2010-04-01","1306168","13846364"
"2010-05-01","1461244","16230586"
"2010-06-01","1494747","15593812"
"2010-07-01","1625837","16037497"
"2010-08-01","1714646","17504495"
"2010-09-01","1868312","16957339"
"2010-10-01","1652535","16720219"
"2010-11-01","1768950","15913641"
"2010-12-01","2066478","18812817"
"2011-01-01","1394625","13812849"
"2011-02-01","1619905","15109097"
"2011-03-01","1756931","17520292"
"2011-04-01","1760266","18401680"
"2011-05-01","1918790","21280576"
"2011-06-01","1985474","21698436"
"2011-07-01","2039324","20205801"
"2011-08-01","2204811","23943432"
"2011-09-01","2205936","21073961"
"2011-10-01","1990344","20130119"
"2011-11-01","2055790","19708290"
"2011-12-01","1769161","20350419"
"2012-01-01","1430679","14638137"
"2012-02-01","1701348","16295781"
"2012-03-01","1426696","19440155"
"2012-04-01","1348619","18200796"
"2012-05-01","1613933","21587348"
"2012-06-01","1310532","18030434"
"2012-07-01","1489279","19493354"
"2012-08-01","1666656","20699482"
"2012-09-01","1479022","18495671"
"2012-10-01","1621327","20103409"
"2012-11-01","1553093","18914238"
"2012-12-01","1345554","18391767"
"2013-01-01","1398353","14563190"
"2013-02-01","1289991","14253276"
"2013-03-01","1397442","17911047"
"2013-04-01","1765493","18861555"
"2013-05-01","1825438","19994011"
"2013-06-01","1643603","19483201"
"2013-07-01","1865901","18935050"
"2013-08-01","1813446","19608153"
"2013-09-01","1915085","18929723"
"2013-10-01","1822086","20995439"
"2013-11-01","1508967","19345389"
"2013-12-01","1367044","19474677"
"2014-01-01","1206756","14815252"
"2014-02-01","1164602","14763129"
"2014-03-01","1182407","16433740"
"2014-04-01","1283260","18437248"
"2014-05-01","1354974","19392480"
"2014-06-01","1223599","19238314"
"2014-07-01","1239711","21781193"
"2014-08-01","1163236","19297002"
"2014-09-01","1208520","18404456"
"2014-10-01","1167774","17153409"
"2014-11-01","1079271","14561107"
"2014-12-01","1003120","16419838"
"2015-01-01","851773","12833767"
"2015-02-01","967941","11117914"
"2015-03-01","1251372","15723211"
"2015-04-01","1012185","14134486"
"2015-05-01","1118500","15644761"
"2015-06-01","1273881","18344533"
"2015-07-01","1211293","17318967"
"2015-08-01","1024933","14454328"
"2015-09-01","1086055","15035901"
"2015-10-01","1073263","14931459"
"2015-11-01","1037063","12747263"
"2015-12-01","885154","15891086"
"2016-01-01","825539","10412133"
"2016-02-01","1074116","12268542"
"2016-03-01","1160699","14830817"
"2016-04-01","1055458","14316244"
"2016-05-01","1204932","16363797"
"2016-06-01","1208477","15529511"
"2016-07-01","1023511","15304402"
"2016-08-01","1242396","15740590"
"2016-09-01","1137272","14662739"
"2016-10-01","1059297","12656176"
"2016-11-01","1192525","15025421"
"2016-12-01","1233117","14704406"
"2017-01-01","1035690","13872564"
"2017-02-01","1271303","14197387"
"2017-03-01","1532812","18541126"
"2017-04-01","1365748","16314081"
"2017-05-01","1535946","18254049"
"2017-06-01","1559190","18219931"
"2017-07-01","1513499","17245266"
"2017-08-01","1624731","17846218"
"2017-09-01","1430526","17228810"
"2017-10-01","1615951","17255996"
"2017-11-01","1556353","15126755"
"2017-12-01","1577074","16018214"
"2018-01-01","1210644","15816545"
"2018-02-01","1470823","15939125"
"2018-03-01","1711828","18516873"
"2018-04-01","1670301","18043549"
"2018-05-01","1238504","17985137"
"2018-06-01","1558279","18574125"
"2018-07-01","1158680","21367873"
"2018-08-01","1331456","20270677"
"2018-09-01","949367","18283120"
"2018-10-01","1012268","20935538"
"2018-11-01","933405","19989040"
